Regional Weather Roundup
Issued by NWS

Home | Current Version | Previous Version | Graphics & Text | Print | Product List | Glossary On
Versions: 1 2 3 4 5 6 7 8 9 10 11 12 13 14 15 16 17 18 19 20 21 22 23 24 25 26 27 28 29 30 31 32 33 34 35 36 37 38 39 40 41 42 43 44 45 46 47 48 49 50
000
ASUS43 KOAX 241410
RWRNE

WEATHER ROUNDUP FOR NEBRASKA
NATIONAL WEATHER SERVICE OMAHA NE
800 AM CST WED DEC 24 2014

NOTES: SATELLITE DATA IS BEING USED TO AUGMENT CLOUD COVER ABOVE
       12000 FEET.
       "FAIR" INDICATES FEW OR NO CLOUDS BELOW 12,000 FEET WITH NO
       SIGNIFICANT WEATHER AND/OR OBSTRUCTIONS TO VISIBILITY.

  * THESE STATIONS DO NOT REPORT WEATHER SUCH AS RAIN...SNOW OR FOG.

NEZ001>004-019>022-054>056-241500-
NEBRASKA PANHANDLE

CITY           SKY/WX    TMP DP  RH WIND       PRES   REMARKS
SCOTTSBLUFF    CLEAR      9   7  92 CALM      29.88F
ALLIANCE       PTCLDY     6   1  80 W6        29.85F WCI  -4
CHADRON        CLEAR     14   8  77 SW9       29.84F WCI   2
KIMBALL        PTCLDY    16   9  74 W8        29.85F WCI   5
SIDNEY         PTCLDY    15   7  70 W7        29.90S WCI   5
$$

NEZ057>060-069>072-079>082-241500-
SOUTHWEST NEBRASKA

CITY           SKY/WX    TMP DP  RH WIND       PRES   REMARKS
NORTH PLATTE   CLEAR     14  11  87 NW9       29.93F WCI   2
IMPERIAL       PTCLDY    17   9  70 W13       29.94S WCI   4
LEXINGTON      CLEAR     21  18  86 NW10      29.93F WCI  10
MCCOOK         CLEAR     15  12  88 W7        29.96F WCI   5
OGALLALA       PTCLDY    10   8  91 W3        29.92F
$$

NEZ005>010-023>029-035>040-094-241500-
NORTH CENTRAL NEBRASKA

CITY           SKY/WX    TMP DP  RH WIND       PRES   REMARKS
VALENTINE      PTCLDY     7   4  87 W5        29.88F WCI  -2
AINSWORTH      PTCLDY    11   8  89 SW5       29.89S WCI   3
BROKEN BOW     CLEAR     20  15  81 NW8       29.91F WCI  10
O`NEILL        CLOUDY    26  26  97 W10       29.91S WCI  16
ORD            CLOUDY    25  22  88 W8        29.92S WCI  16
THEDFORD       PTCLDY    12  10  89 W6        29.90F WCI   3
$$

NEZ041-046>049-061>064-073>077-083>087-241500-
SOUTH CENTRAL NEBRASKA

CITY           SKY/WX    TMP DP  RH WIND       PRES   REMARKS
GRAND ISLAND   CLOUDY    27  22  81 NW13      29.94S WCI  16
AURORA         CLOUDY    28  26  93 N9        29.92F WCI  19
HASTINGS       CLOUDY    27  22  81 NW12      29.93S WCI  17
HEBRON         CLOUDY    30  26  84 NW10      29.94S WCI  21
HOLDREGE       CLEAR     22  18  85 NW9       29.93F WCI  11
KEARNEY *      CLEAR     21  18  86 W9        29.94S WCI  11
YORK           CLOUDY    28  27  93 N13       29.92F WCI  18
$$

NEZ011>018-030>034-042>045-241500-
NORTHEAST NEBRASKA

CITY           SKY/WX    TMP DP  RH WIND       PRES   REMARKS
NORFOLK        CLOUDY    27  25  92 NW14      29.90F WCI  16
ALBION         CLOUDY    26  23  89 NW16      29.91S WCI  13
BLAIR          CLOUDY    32  30  92 NW15G21   29.86F WCI  22
COLUMBUS *     CLOUDY    28  21  74 NW12      29.92F WCI  18
FREMONT        CLOUDY    32  30  94 NW17      29.89F WCI  21
TEKAMAH        CLOUDY    33  29  85 NW16      29.88F WCI  23
WAYNE          CLOUDY    28  26  91 NW13      29.90F WCI  17
$$

NEZ050>053-065>068-078-088>093-241500-
SOUTHEAST NEBRASKA

CITY           SKY/WX    TMP DP  RH WIND       PRES   REMARKS
LINCOLN        CLOUDY    31  27  85 NW15      29.92F WCI  20
OMAHA EPPLEY   CLOUDY    33  31  92 NW10      29.88S WCI  25
BEATRICE       CLOUDY    31  29  91 NW13      29.91S WCI  21
FALLS CITY     CLOUDY    34  34 100 NW13      29.86R WCI  25
NEBRASKA CITY  CLOUDY    32  32  99 N13       29.86F WCI  23
PLATTSMOUTH    CLOUDY    32  30  92 NW12      29.86S WCI  23
$$

NEZ044-045-051>053-067-241500-
OMAHA AREA

CITY           SKY/WX    TMP DP  RH WIND       PRES   REMARKS
OMAHA EPPLEY   CLOUDY    33  31  92 NW10      29.88S WCI  25
BLAIR          CLOUDY    32  30  92 NW15G21   29.86F WCI  22
FREMONT        CLOUDY    32  30  94 NW17      29.89F WCI  21
MILLARD        CLOUDY    33  30  89 NW12      29.88F WCI  24
PLATTSMOUTH    CLOUDY    32  30  92 NW12      29.86S WCI  23
WAHOO          CLOUDY    31  28  86 NW17      29.89F WCI  20
$$



USA.gov is the U.S. government's official web portal to all federal, state and local government web resources and services.